Temp
63 63 63 63 63 64 64 64 64 64 64 64 64 64 64 64 64 74 81 90 86 81 83 89 84 85 87 83 89 88 68 66 71 73 74 82 76 82 85 78 82 81 76 78 79
63 63 63 63 63 63 63 63 63 64 64 63 63 64 64 64 65 75 88 83 82 81 89 88 87 89 82 83 85 81 68 73 82 81 78 82 82 81 78 77 74 75 79 81 81
63 62 62 62 63 63 63 63 63 63 63 63 63 64 64 63 70 85 87 83 82 82 89 88 87 88 82 81 84 83 74 84 85 86 86 83 83 84 76 70 74 72 75 78 79
62 62 62 62 62 62 62 62 62 62 63 63 64 64 64 61 71 91 84 83 83 86 88 87 85 79 78 80 87 82 87 88 87 88 85 82 87 80 79 76 81 79 79 78 78
62 61 61 61 61 62 62 62 62 62 62 63 64 65 65 68 78 94 83 84 85 89 88 86 84 82 83 80 81 80 85 86 88 88 86 87 81 80 78 82 82 81 80 78 78
61 61 61 61 61 61 61 61 61 61 62 64 65 65 64 66 91 92 90 86 89 86 86 87 87 87 87 84 82 85 84 85 86 84 87 82 80 81 80 83 80 80 78 79 78
60 60 60 60 60 61 60 60 60 61 62 64 66 71 67 76 90 89 89 90 91 90 87 92 92 87 89 82 87 84 77 79 81 84 80 80 75 75 82 84 79 79 80 81 81
60 60 60 60 60 60 59 59 60 62 64 65 68 64 65 87 85 90 86 92 92 92 91 94 94 87 85 86 87 77 77 69 78 82 79 77 64 78 83 81 79 81 81 81 82
59 59 59 59 59 58 58 58 61 64 66 67 60 62 68 87 85 90 90 92 90 90 90 103 90 82 81 75 69 71 62 67 73 79 77 73 64 76 83 81 79 79 79 82 82
59 59 58 58 58 57 57 58 62 64 68 76 80 65 73 80 85 91 88 91 87 87 89 83 79 73 69 67 60 65 67 69 70 75 76 69 68 76 82 82 80 80 78 77 83
58 58 58 58 57 56 54 60 68 68 66 68 67 71 79 83 88 90 89 85 81 78 70 77 70 66 73 73 76 75 70 72 74 79 73 70 69 70 77 80 79 79 76 78 79
58 58 58 57 56 56 51 63 69 74 64 76 79 80 84 79 79 83 88 80 76 71 72 71 65 77 80 81 78 76 74 73 77 80 74 72 68 68 71 76 80 81 78 80 79
58 58 57 56 56 57 62 69 78 73 61 70 76 76 78 81 77 79 83 76 74 66 71 67 73 83 80 79 77 73 72 70 73 79 80 69 62 64 72 73 78 80 82 83 80
58 57 56 55 60 57 67 75 77 75 52 62 66 77 79 82 75 89 85 82 71 72 70 70 79 81 79 76 75 65 82 82 80 70 61 73 58 59 65 71 75 79 76 79 80
57 57 55 53 48 59 74 73 76 71 45 74 71 83 78 76 73 80 89 79 73 75 71 70 74 75 73 78 80 76 85 84 79 74 69 65 55 58 65 64 69 72 76 78 80
57 56 55 54 49 59 66 69 71 53 49 69 76 74 72 69 74 80 79 79 80 73 69 74 80 76 77 85 82 86 80 75 68 67 56 62 60 57 60 67 71 74 74 78 79
55 54 53 58 62 65 68 66 52 45 69 70 67 69 68 65 70 74 72 66 65 56 57 68 74 76 81 74 78 74 64 55 55 55 55 55 61 63 71 72 75 74 77 77 80
54 52 51 56 55 63 64 58 43 63 64 72 72 70 68 66 67 71 64 63 65 63 56 57 59 70 80 75 72 67 64 55 49 50 55 59 56 65 71 74 75 79 77 77 77
52 52 54 61 59 61 60 47 50 59 69 69 69 65 62 69 67 66 64 63 67 68 63 55 58 75 77 78 77 71 62 68 58 51 53 57 60 69 70 72 75 76 78 76 78
49 56 62 72 66 64 55 48 57 68 72 71 59 64 57 63 64 62 61 71 71 74 71 66 58 76 78 76 77 72 73 60 55 49 46 52 54 58 64 68 72 73 77 77 77
55 60 71 72 69 60 50 52 64 73 73 67 64 60 60 61 60 61 62 73 75 77 69 66 61 69 67 65 68 67 62 60 60 54 51 48 53 64 69 72 72 73 77 77 76
52 58 73 74 58 52 52 61 66 73 75 71 70 66 62 66 61 61 64 70 80 75 70 72 60 57 68 74 74 70 69 64 56 55 52 53 56 72 76 77 70 73 76 77 79
51 55 73 72 52 52 59 66 71 69 70 70 67 67 66 62 59 64 69 80 80 75 68 65 55 56 61 65 66 65 67 60 59 54 54 53 57 70 68 69 69 73 75 78 77
54 56 61 63 58 55 58 61 66 76 73 72 69 69 64 61 60 61 67 77 80 76 73 68 55 56 57 59 62 62 68 67 62 54 55 56 59 65 66 68 69 73 77 77 76
55 53 55 51 57 57 56 62 65 65 71 70 67 65 60 54 57 58 65 66 75 73 72 65 57 56 61 64 68 66 69 71 61 61 60 67 64 66 71 74 70 73 78 76 74
50 49 52 50 55 58 56 60 64 66 67 64 63 69 65 55 58 57 58 57 62 69 65 63 58 59 59 67 65 64 68 70 68 70 64 62 64 72 79 70 70 73 77 76 74
52 54 52 50 53 53 54 60 65 65 67 71 70 65 65 66 67 65 64 64 65 62 61 58 57 56 51 60 62 58 64 67 69 70 69 63 71 71 71 75 75 73 78 77 76
MSLP
1015.65 1015.20 1014.75 1014.31 1013.83 1013.38 1012.85 1012.39 1011.86 1011.39 1010.97 1010.49 1010.01 1009.57 1009.01 1008.23 1006.84 1005.87 1004.91 1003.11 1002.92 1002.92 1003.17 1003.41 1004.23 1004.27 1004.29 1004.05 1003.50 1003.48 1004.48 1004.73 1004.89 1004.98 1005.34 1005.18 1005.78 1006.80 1007.19 1007.77 1008.63 1009.20 1009.87 1010.94 1011.86
1015.70 1015.19 1014.67 1014.16 1013.69 1013.22 1012.82 1012.31 1011.79 1011.21 1010.97 1010.37 1009.89 1009.44 1008.97 1008.43 1007.51 1005.23 1001.72 1002.45 1002.40 1002.71 1002.88 1003.06 1002.98 1002.93 1003.47 1003.04 1002.45 1002.99 1003.31 1003.69 1003.75 1004.12 1004.47 1004.83 1005.34 1006.18 1007.25 1008.18 1009.27 1009.66 1010.41 1011.23 1011.89
1015.88 1015.32 1014.78 1014.19 1013.59 1013.09 1012.63 1012.18 1011.62 1011.21 1010.78 1010.28 1009.69 1009.17 1008.76 1008.56 1007.29 1003.20 1000.88 1002.13 1002.25 1002.61 1002.76 1002.97 1003.05 1003.08 1002.88 1002.52 1002.28 1002.61 1002.75 1003.16 1003.31 1003.45 1003.84 1004.41 1004.92 1005.80 1007.05 1008.65 1008.64 1009.47 1010.38 1011.00 1011.65
1015.86 1015.31 1014.78 1014.17 1013.55 1013.06 1012.49 1011.92 1011.47 1010.91 1010.64 1010.09 1009.52 1009.00 1008.50 1008.27 1005.86 1001.74 1001.45 1002.17 1002.44 1002.62 1002.61 1002.90 1002.72 1002.77 1003.11 1002.66 1002.20 1002.31 1002.80 1002.78 1003.02 1003.23 1003.70 1004.25 1004.66 1006.18 1006.55 1007.90 1008.68 1009.04 1009.81 1011.08 1011.58
1015.80 1015.31 1014.73 1014.14 1013.52 1012.93 1012.28 1011.75 1011.21 1010.72 1010.27 1009.97 1009.45 1008.91 1008.19 1007.28 1004.17 1001.27 1001.67 1002.18 1002.60 1002.40 1002.36 1002.67 1002.63 1002.56 1002.93 1003.01 1003.10 1002.60 1003.04 1003.18 1003.14 1003.47 1003.91 1004.23 1004.80 1005.58 1006.87 1007.88 1008.88 1009.48 1010.10 1010.83 1011.29
1015.85 1015.24 1014.61 1014.00 1013.35 1012.71 1012.09 1011.45 1010.91 1010.40 1009.90 1009.79 1009.28 1008.97 1008.36 1006.15 1001.86 1001.20 1001.58 1002.09 1002.19 1002.14 1002.11 1002.52 1002.44 1002.35 1002.60 1002.46 1002.89 1002.94 1003.16 1003.56 1003.87 1004.19 1004.56 1004.83 1005.28 1005.72 1007.38 1008.11 1009.14 1009.74 1010.00 1010.42 1010.99
1015.61 1015.00 1014.50 1013.85 1013.16 1012.56 1011.88 1011.09 1010.40 1009.83 1009.47 1009.31 1009.13 1008.76 1007.85 1004.13 1001.67 1001.53 1001.93 1001.68 1001.42 1001.70 1001.95 1001.73 1001.71 1002.54 1002.32 1002.93 1003.20 1003.45 1003.60 1003.88 1004.67 1004.99 1005.38 1005.64 1006.39 1006.83 1007.50 1007.95 1008.85 1009.47 1009.78 1010.17 1010.28
1015.59 1014.96 1014.28 1013.61 1013.02 1012.27 1011.44 1010.55 1009.72 1009.18 1008.92 1008.83 1008.81 1008.46 1006.46 1002.36 1001.79 1001.79 1001.25 1001.14 1001.24 1001.22 1001.53 1001.02 1001.10 1002.06 1002.30 1003.00 1003.35 1004.00 1003.86 1004.33 1005.05 1004.93 1006.05 1006.03 1007.00 1007.18 1007.27 1007.62 1008.29 1009.04 1009.41 1009.65 1009.79
1015.42 1014.79 1014.19 1013.49 1012.80 1012.04 1011.14 1009.97 1008.81 1008.26 1008.40 1008.53 1008.58 1007.99 1005.02 1002.00 1001.67 1000.69 1000.79 1001.01 1000.87 1001.02 1000.94 1000.60 1000.85 1002.05 1003.09 1003.52 1004.37 1004.76 1004.96 1005.08 1005.44 1005.84 1005.93 1006.67 1007.32 1006.27 1006.41 1007.10 1007.93 1008.38 1008.73 1008.85 1009.18
1015.32 1014.59 1013.88 1013.21 1012.56 1011.76 1010.58 1008.96 1007.99 1008.04 1008.17 1008.15 1007.85 1007.61 1004.21 1002.21 1001.18 1000.36 1000.25 1000.67 1001.08 1001.23 1001.23 1001.18 1001.82 1002.25 1003.45 1004.46 1004.96 1004.87 1004.79 1005.17 1005.69 1005.93 1006.06 1006.86 1007.03 1007.54 1007.35 1007.03 1007.42 1007.65 1008.10 1008.44 1008.71
1015.16 1014.44 1013.68 1012.85 1012.31 1011.81 1010.68 1009.01 1008.40 1008.10 1007.55 1007.00 1006.53 1005.53 1003.62 1002.22 1000.99 1000.20 1000.21 1000.74 1001.31 1001.78 1002.16 1001.99 1002.82 1002.94 1002.66 1003.35 1003.73 1003.90 1003.91 1004.43 1004.94 1004.78 1006.03 1006.64 1007.53 1008.18 1008.17 1007.77 1007.43 1007.48 1007.49 1007.76 1008.53
1015.01 1014.27 1013.45 1012.49 1011.77 1011.44 1011.44 1010.19 1008.12 1007.42 1006.72 1005.71 1004.84 1004.28 1002.88 1003.00 1002.68 1000.87 1000.17 1001.13 1001.56 1002.18 1002.61 1003.07 1002.92 1002.29 1002.48 1002.51 1002.95 1003.24 1003.15 1003.88 1003.69 1004.16 1005.41 1006.72 1007.67 1008.45 1007.96 1007.59 1006.25 1006.09 1006.77 1007.08 1007.88
1014.73 1014.00 1013.22 1012.14 1011.15 1010.81 1010.45 1008.74 1007.19 1006.81 1006.79 1004.51 1003.49 1002.77 1002.08 1002.28 1002.21 1001.14 1000.57 1000.95 1001.67 1002.50 1002.88 1003.29 1002.38 1001.98 1002.35 1001.97 1002.53 1002.45 1002.58 1002.58 1002.86 1004.43 1005.65 1007.20 1008.31 1008.20 1007.86 1007.14 1006.43 1006.64 1006.70 1006.91 1007.18
1014.58 1013.87 1013.19 1011.86 1010.99 1011.07 1009.36 1007.53 1006.86 1006.57 1006.97 1004.27 1002.69 1001.23 1001.27 1001.51 1001.49 1000.36 1000.37 1001.16 1001.81 1002.28 1002.92 1002.93 1001.99 1001.99 1001.79 1001.60 1001.73 1001.89 1001.28 1001.35 1002.40 1004.08 1005.60 1006.37 1007.38 1007.37 1007.08 1006.41 1006.47 1006.69 1006.41 1006.77 1007.13
1014.37 1013.77 1013.29 1013.20 1012.56 1011.16 1008.66 1007.65 1007.02 1007.00 1006.35 1002.60 1001.35 999.97 1000.13 1001.01 1000.60 999.83 999.76 1000.92 1001.74 1002.14 1002.76 1002.35 1001.83 1001.49 1001.38 1000.63 1000.79 1000.57 1000.46 1000.93 1001.72 1003.20 1004.63 1006.65 1007.50 1006.23 1006.00 1006.58 1006.08 1005.78 1005.59 1005.38 1006.16
1013.93 1013.55 1013.23 1012.85 1012.56 1009.82 1008.69 1007.87 1007.42 1008.04 1005.33 1002.30 1000.75 1000.36 1000.79 1000.88 1000.58 1000.20 1000.24 1000.63 1001.29 1002.23 1002.37 1002.21 1001.31 1001.15 1000.54 1000.00 1000.12 1000.02 1000.40 1000.85 1001.98 1003.42 1004.74 1005.08 1006.05 1006.27 1005.73 1004.82 1005.70 1005.67 1005.52 1004.54 1004.95
1013.16 1012.97 1013.17 1012.45 1010.57 1009.07 1008.70 1008.59 1008.88 1007.65 1004.55 1003.15 1001.86 1001.30 1001.04 1001.22 1001.30 1001.11 1001.33 1001.68 1002.10 1002.71 1002.77 1002.50 1001.53 1000.74 1000.34 1000.20 999.70 1000.18 1001.42 1002.43 1003.60 1004.29 1005.41 1004.91 1005.44 1004.60 1004.25 1004.15 1004.46 1004.42 1004.21 1003.76 1004.10
1012.02 1011.61 1011.32 1010.78 1009.65 1009.53 1009.41 1009.53 1009.18 1006.85 1004.93 1003.37 1002.29 1001.35 1001.66 1001.69 1001.61 1001.43 1001.69 1002.20 1002.07 1002.67 1003.37 1003.15 1002.07 1000.72 999.96 999.96 1000.02 1000.31 1001.68 1002.90 1004.03 1005.25 1005.39 1005.21 1005.19 1003.63 1003.45 1003.53 1003.63 1003.19 1003.27 1004.52 1004.17
1011.20 1010.95 1010.85 1008.85 1009.35 1010.12 1010.35 1010.42 1008.91 1006.62 1005.16 1004.03 1002.91 1002.48 1003.02 1002.63 1002.37 1001.93 1002.07 1002.07 1001.73 1001.88 1002.65 1002.85 1001.96 1000.50 999.92 999.48 1000.01 1000.18 1001.06 1001.64 1003.30 1005.14 1005.64 1005.49 1005.05 1003.61 1003.11 1003.14 1002.78 1003.21 1004.20 1003.66 1003.85
1011.92 1011.10 1009.62 1007.72 1008.80 1009.55 1010.42 1010.28 1008.31 1006.16 1005.01 1003.93 1003.70 1003.60 1003.82 1003.20 1002.98 1002.74 1002.02 1000.75 1000.80 1000.70 1000.84 1001.77 1002.02 1000.72 999.80 999.69 999.31 1000.05 1000.20 1001.81 1003.60 1005.16 1006.12 1006.22 1005.65 1003.93 1003.29 1002.91 1002.26 1002.90 1002.60 1002.62 1003.26
1012.00 1010.97 1008.10 1007.72 1008.77 1010.02 1010.75 1009.65 1007.57 1005.39 1004.70 1004.04 1003.43 1003.61 1003.82 1003.70 1003.41 1003.18 1002.42 1000.78 1000.23 1000.00 1000.60 1000.99 1001.83 1000.77 1000.43 1000.06 1000.02 999.95 1000.48 1001.65 1002.98 1004.46 1005.48 1005.89 1005.25 1002.33 1002.01 1001.50 1001.67 1002.12 1002.19 1001.96 1002.53
1012.59 1011.18 1008.15 1008.03 1009.65 1010.26 1010.13 1008.50 1006.75 1005.09 1004.12 1003.69 1003.47 1003.74 1004.03 1004.13 1003.74 1003.29 1002.74 1001.79 1000.70 1000.66 1000.30 999.94 1000.97 1001.55 1000.52 999.60 999.43 999.74 1000.21 1001.23 1002.78 1004.14 1004.49 1004.25 1003.04 1001.17 1000.58 1000.46 1001.25 1001.25 1001.55 1001.64 1002.54
1013.74 1011.73 1008.46 1008.55 1010.06 1010.46 1009.44 1008.18 1006.66 1005.22 1004.03 1003.57 1003.61 1003.77 1004.03 1004.63 1004.62 1003.66 1002.83 1001.60 1000.84 1000.28 999.82 999.95 1000.99 1001.84 1001.16 1000.16 999.81 999.63 999.55 1000.03 1000.76 1002.29 1003.39 1003.73 1002.25 1000.83 1001.02 1001.11 1001.36 1001.52 1001.33 1001.89 1002.85
1013.96 1012.66 1010.88 1010.12 1010.33 1010.46 1009.92 1008.20 1006.71 1004.95 1004.45 1003.92 1004.01 1004.17 1004.71 1005.05 1004.96 1004.76 1003.67 1002.01 1001.30 1000.80 1000.33 1000.93 1001.07 1001.63 1001.29 1000.85 1000.53 999.84 999.33 999.58 999.73 1001.53 1001.71 1001.60 1001.05 1000.88 1001.14 1001.13 1001.60 1001.22 1001.34 1002.12 1002.97
1014.23 1014.30 1013.40 1012.49 1011.31 1011.05 1010.03 1008.62 1007.32 1006.14 1005.50 1005.29 1005.16 1005.82 1005.93 1006.24 1006.26 1005.93 1004.87 1003.56 1002.03 1001.33 1001.50 1001.77 1002.09 1001.61 1000.85 1000.59 1000.12 999.52 999.16 999.01 999.56 999.63 1000.29 999.67 1000.11 999.73 999.68 999.89 1000.76 1000.90 1001.46 1002.24 1003.17
1015.53 1015.45 1014.43 1013.71 1012.58 1011.58 1010.57 1009.66 1008.64 1007.48 1006.62 1006.74 1006.46 1005.99 1006.12 1006.60 1006.86 1006.75 1006.29 1005.20 1004.19 1002.24 1002.67 1002.61 1002.70 1002.30 1001.26 999.97 999.64 999.15 998.81 998.60 998.55 998.42 998.63 998.46 998.57 998.01 997.71 999.20 1000.06 1000.30 1000.73 1001.53 1002.09
1016.33 1015.64 1015.37 1014.21 1013.37 1012.41 1011.72 1010.72 1009.70 1008.80 1007.61 1007.20 1006.84 1006.52 1006.15 1005.92 1005.90 1005.74 1005.53 1005.20 1004.71 1004.29 1003.69 1003.77 1004.12 1003.65 1002.36 1000.84 999.80 999.25 998.41 998.18 998.19 998.02 997.72 997.99 997.48 997.45 998.44 998.78 998.98 998.95 999.45 1000.76 1002.01
Wind_Speed
19 19 20 20 20 20 20 20 20 20 20 20 19 17 18 19 20 2 7 8 4 13 4 3 8 8 8 5 7 4 3 6 4 5 4 6 6 3 5 16 4 5 7 13 17
20 21 21 21 21 20 20 20 20 20 20 19 18 17 16 15 4 8 12 11 9 11 1 4 7 5 3 5 3 4 5 4 5 7 6 5 11 12 9 13 10 16 16 17 15
20 21 22 22 22 22 21 20 21 20 20 19 18 17 15 10 4 10 7 15 9 7 1 1 2 2 4 3 5 3 6 8 7 7 12 9 4 9 19 8 19 22 20 20 18
20 21 21 22 23 23 22 22 21 21 19 19 18 16 17 1 5 4 4 12 9 4 3 1 2 3 1 3 3 10 4 6 5 6 5 8 6 16 12 11 19 22 22 18 16
20 21 21 22 23 23 22 21 21 20 20 17 17 14 3 3 11 6 7 7 6 5 3 3 6 6 6 2 5 4 4 6 9 11 8 10 7 7 11 20 17 18 20 20 17
20 20 20 21 22 23 23 22 22 21 20 15 15 11 2 3 7 6 9 4 2 3 2 5 6 5 6 6 5 5 15 10 10 9 7 10 12 8 15 20 18 19 20 19 18
21 21 21 22 22 23 23 23 23 22 20 15 11 4 1 16 4 5 5 7 5 5 4 5 6 5 2 2 3 4 7 8 7 3 6 3 6 8 15 20 21 18 18 18 18
21 21 23 23 23 24 24 25 26 24 17 11 4 1 9 7 5 10 3 8 4 7 6 10 7 4 5 4 4 4 5 4 4 2 5 7 2 11 17 17 14 16 17 17 19
21 22 23 23 24 24 25 28 28 18 7 3 0 2 12 11 4 8 7 7 5 5 6 9 4 5 4 4 5 4 2 4 5 5 4 5 7 8 17 17 14 10 8 11 12
22 23 24 24 23 24 27 27 14 10 4 5 4 4 7 5 6 4 4 4 4 5 7 3 4 2 5 5 5 5 2 3 5 4 3 3 8 5 10 16 15 13 9 7 10
23 23 24 25 23 20 16 6 7 6 3 7 5 6 7 5 7 6 4 4 1 2 1 5 1 7 12 7 8 8 6 5 7 10 6 11 7 6 4 7 12 11 9 11 9
23 23 24 26 24 22 1 2 6 5 9 10 15 15 22 1 8 10 6 5 5 6 1 6 6 12 6 8 5 8 2 7 4 12 6 8 11 5 5 8 14 16 12 13 9
23 23 24 27 29 3 3 6 9 5 2 9 9 8 8 9 8 12 6 3 4 2 5 8 9 4 7 13 7 6 5 7 9 11 6 11 7 7 6 12 9 4 5 10 13
23 23 22 29 3 6 6 9 10 3 5 10 4 10 5 8 7 9 7 7 2 9 6 8 9 11 14 12 5 7 18 9 14 7 7 11 6 7 10 10 9 9 2 8 8
22 21 19 12 5 3 6 13 11 7 3 2 4 2 5 11 3 6 8 5 9 8 9 12 4 9 7 13 3 14 4 15 17 18 5 14 2 8 2 5 11 11 7 9 10
22 19 17 3 1 9 10 11 5 7 4 5 2 6 6 3 4 5 5 4 4 7 3 10 4 4 9 16 8 12 5 4 4 6 3 6 6 6 7 10 6 7 11 11 11
24 16 7 4 5 5 7 6 6 4 7 8 4 3 5 4 4 5 6 4 6 3 5 7 10 6 4 8 7 5 6 4 5 5 6 3 4 9 9 6 13 16 16 16 16
26 18 6 6 5 5 5 6 1 5 5 6 5 4 7 2 6 6 2 5 4 5 3 7 11 4 5 8 9 5 9 7 7 4 7 2 5 8 4 5 6 10 10 10 11
22 1 1 6 8 2 7 5 6 3 5 9 11 9 9 6 2 4 9 8 8 10 10 6 8 9 5 5 8 11 3 9 8 1 4 3 6 11 3 5 9 8 16 16 13
3 4 4 3 8 5 7 4 5 4 8 11 4 4 4 8 8 6 4 7 8 11 8 10 8 15 14 2 5 8 4 1 4 3 3 4 5 7 5 12 9 8 12 8 9
3 4 5 8 4 6 3 7 7 11 3 5 3 2 3 3 3 5 4 12 2 10 8 9 7 14 5 6 9 7 4 4 7 6 7 3 9 9 16 19 11 10 10 10 12
3 3 4 5 4 0 2 5 6 12 10 4 5 4 3 6 5 3 5 7 9 4 9 15 8 8 16 10 5 6 10 9 7 8 3 6 9 5 20 17 9 9 3 8 16
2 3 4 7 1 3 7 7 6 4 7 3 2 1 2 4 6 4 7 12 9 11 5 3 1 5 12 8 6 4 5 6 6 5 7 7 8 1 4 6 3 5 9 13 18
3 4 6 5 1 2 6 7 10 8 6 7 4 7 8 8 3 6 14 8 14 7 11 8 4 7 9 10 5 4 8 5 5 6 6 8 4 4 5 12 6 6 14 17 17
4 2 1 4 6 7 3 4 6 8 7 11 8 5 3 5 9 8 7 11 18 7 9 5 3 5 8 9 6 3 5 9 4 7 6 11 10 11 16 18 11 9 16 18 18
3 4 6 4 5 7 7 7 11 14 6 7 4 9 5 3 5 6 3 4 7 12 8 6 4 7 5 8 4 3 5 7 6 5 5 4 7 9 19 10 11 16 22 22 24
4 4 5 5 6 4 4 8 10 9 5 7 6 5 9 7 7 9 8 9 12 7 5 4 6 9 7 5 7 5 4 4 5 5 5 4 11 7 6 15 17 18 24 21 20
Wind_Direction
353 350 349 347 345 344 340 336 333 334 331 329 326 324 321 324 315 231 256 214 155 164 142 176 185 195 201 236 198 143 94 85 145 113 148 128 115 164 118 132 144 188 124 142 158
351 349 347 344 342 340 337 333 331 331 330 328 325 322 323 331 323 276 237 127 143 152 195 10 324 2 161 239 204 144 118 121 148 148 133 122 137 137 119 137 98 98 107 140 157
348 346 343 340 340 337 334 331 328 327 328 328 324 322 318 324 327 253 316 134 165 168 223 80 263 264 301 47 355 239 100 115 151 137 144 144 165 122 131 135 149 148 154 156 163
346 343 340 338 337 333 331 328 326 323 327 327 323 322 315 231 221 272 97 125 152 172 264 66 1 342 72 282 295 95 78 118 152 122 126 141 120 143 152 165 158 153 155 158 171
342 339 336 334 332 329 327 325 322 319 322 324 321 326 342 1 254 265 128 138 143 169 234 54 357 352 55 48 319 41 80 39 87 96 88 100 85 128 130 143 150 154 155 169 178
339 336 334 332 329 327 324 321 316 313 314 317 315 316 354 276 253 195 159 147 199 197 290 136 218 208 286 188 135 208 70 71 67 29 102 114 126 103 139 147 154 164 171 175 184
335 333 332 329 327 325 321 316 310 308 307 307 305 300 295 235 243 31 289 187 199 198 249 221 240 67 266 32 7 335 86 77 33 67 51 13 52 118 144 154 163 176 180 185 194
333 331 330 328 326 323 319 312 305 304 297 283 281 276 249 256 292 291 217 286 231 250 194 259 263 181 112 125 59 286 43 99 185 122 45 80 158 143 159 156 163 179 191 196 200
332 330 329 327 325 323 317 308 303 295 259 233 175 113 270 304 261 235 180 238 307 297 286 271 24 151 65 77 6 21 331 42 58 45 116 87 234 218 171 158 169 185 199 205 189
332 330 328 326 325 324 318 304 289 310 173 189 262 4 278 269 266 217 208 223 247 332 349 6 34 13 107 99 213 241 202 161 156 224 116 137 278 283 171 163 180 187 191 213 179
331 328 326 323 322 323 337 353 11 359 61 208 212 264 276 301 279 254 175 132 95 41 218 300 118 241 255 182 197 196 188 177 131 207 143 196 188 302 343 203 188 197 180 191 186
331 329 326 321 319 320 240 14 231 217 300 242 252 246 265 29 312 313 102 140 146 226 119 348 232 244 257 252 218 215 234 192 288 156 144 176 237 258 263 256 212 193 192 186 146
330 329 327 320 317 316 227 236 288 329 302 284 217 224 223 139 220 256 136 142 178 196 218 197 241 304 246 270 248 251 218 166 211 161 212 118 306 293 286 224 254 205 186 200 162
327 328 330 327 347 327 285 297 328 74 39 279 237 259 186 162 289 221 170 153 194 206 214 231 252 251 269 265 178 198 226 231 209 161 196 207 228 229 216 244 247 239 73 213 183
324 324 328 326 298 323 282 332 321 56 12 265 231 193 145 153 196 242 207 105 214 226 117 240 235 261 265 255 219 251 228 221 206 206 147 205 154 273 180 222 213 201 216 172 183
320 320 329 115 232 244 310 302 46 45 272 294 166 185 98 249 254 295 62 87 180 219 235 236 245 221 239 265 246 267 290 29 64 136 52 199 143 262 209 203 164 191 186 189 167
316 308 297 293 231 336 316 36 47 127 304 352 300 258 186 213 239 224 261 291 201 148 268 306 273 275 227 294 310 84 61 337 344 359 223 191 112 227 219 199 162 191 194 183 163
318 308 215 214 248 346 33 55 100 256 252 270 297 174 185 134 276 233 252 268 248 124 138 192 286 235 243 188 226 264 158 155 199 214 252 136 244 261 259 142 183 233 215 173 159
319 72 197 251 200 114 68 63 219 257 327 342 340 42 3 353 282 311 206 219 231 173 195 173 264 278 266 254 126 280 226 190 115 63 78 226 294 309 60 296 248 213 194 175 176
8 348 271 150 144 77 73 243 267 265 319 316 26 93 357 324 22 32 267 229 226 195 178 225 248 262 272 271 293 161 207 283 9 167 280 296 293 240 208 239 239 226 238 160 161
30 27 266 114 81 49 130 239 278 270 281 268 329 352 307 318 7 333 282 288 357 258 150 168 166 263 35 173 233 326 309 65 119 138 164 190 254 219 201 216 217 219 203 205 158
7 40 278 100 48 173 209 213 262 290 313 319 23 10 7 311 300 313 279 222 324 267 243 205 167 216 245 232 223 206 227 187 144 260 227 157 263 223 208 208 183 242 262 170 163
60 267 318 84 15 313 300 294 239 289 285 280 324 343 88 342 347 322 328 312 349 347 324 198 203 234 296 327 356 226 237 200 125 86 199 150 254 302 160 247 208 192 153 146 151
67 28 334 30 209 330 328 303 319 335 350 358 352 45 20 353 342 323 348 322 339 13 349 6 117 156 212 212 187 300 320 280 144 134 203 219 212 227 215 240 157 170 153 153 156
28 332 205 311 321 328 269 273 324 354 9 18 7 58 102 14 346 1 339 326 330 7 7 63 264 189 216 204 203 174 291 313 211 220 165 238 192 201 201 212 176 176 159 161 160
69 36 347 286 302 323 16 336 1 354 45 344 31 344 65 124 170 279 7 323 273 323 9 355 308 337 301 308 55 337 314 299 262 263 248 172 231 208 210 120 166 173 170 176 173
323 338 108 274 336 29 338 338 357 358 322 346 328 319 314 249 195 218 205 230 240 270 330 32 12 343 279 311 7 339 222 254 269 264 224 283 233 154 158 186 187 183 180 175 170